コワルスキー彗星

P/2006 F1 ( Kowalski )

English version
Home page
Total 6,336 html files since Dec. 4, 1995
Updated on October 7, 2008

---------------------------------------------------------------------

・ プロフィール

発見日 2006年3月21日
発見光度 18.8等
発見者 R. A. Kowalski (Mt. Lemmon Survey)

・ 軌道要素

The following orbital elements are taken from MPC 60280:

Epoch 2008 Feb. 24.0 TT = JDT 2454520.5
T 2008 Feb. 20.2224 TT                                  MPC
q   4.119098             (2000.0)            P               Q
n   0.0972084      Peri.  186.9164      +0.6581527      +0.6913818
a   4.684539       Node   124.7576      -0.6722175      +0.7179047
e   0.120704       Incl.   21.2701      -0.3390555      -0.0812648
P  10.1
From 74 observations 2005 May 10-2007 July 5, mean residual 0".7.

・ 光度変化

        m1 = -6.5 + 5 logΔ + 35 log r(t + 600)

        ※ 灰色の曲線は、m1 = 8.5 + 5 logΔ + 10.0 log r の光度曲線です。

---------------------------------------------------------------------

軌道要素はMPCのEphemerides and Orbital Elementsに掲載されたものです。
光度グラフはComet for Windowsで作成したものです。

---------------------------------------------------------------------

Copyright(C) 1995-2008 Seiichi Yoshida (comet@aerith.net). All rights reserved.